Wind_Speed
21 21 22 22 21 22 21 21 22 23 23 21 20 18 22 33 32 34 35 35 31 27 24 20 17 14 10 7 3 5 7 10 18 16 18 38 26 24 29 18 4 14 10 11 22 18 7
23 22 22 24 25 25 23 22 21 23 24 25 24 22 20 22 34 34 34 36 35 32 29 25 21 18 15 12 8 5 8 9 18 19 20 30 29 22 25 18 12 13 7 15 12 15 9
23 24 24 24 25 27 28 26 22 22 23 26 26 25 24 21 23 36 35 35 36 37 34 31 26 21 20 15 13 8 11 13 18 21 22 28 29 23 29 17 18 8 10 16 11 11 6
25 26 27 25 24 26 27 28 28 25 23 23 27 27 25 24 23 25 37 35 35 37 38 35 31 26 24 20 18 14 9 12 15 21 26 27 26 24 28 22 15 12 14 11 2 15 20
24 26 29 28 26 25 27 28 28 28 26 26 26 27 28 26 25 24 27 39 36 35 41 40 36 31 27 25 21 18 13 17 17 21 24 24 26 21 28 27 21 18 9 10 9 8 12
25 26 29 32 27 28 27 29 29 28 28 28 28 28 28 28 26 25 25 31 40 37 39 44 40 37 33 33 28 21 19 18 20 23 23 24 24 22 21 28 15 19 18 20 19 14 10
26 27 29 33 30 29 31 28 29 29 29 31 30 30 30 29 27 26 26 25 37 42 37 43 46 42 39 37 32 28 24 21 23 24 22 23 25 20 16 18 18 8 8 14 20 19 13
28 28 29 31 33 32 32 31 29 31 32 32 32 33 33 32 29 26 26 27 30 42 42 39 46 46 43 40 37 33 30 26 24 21 25 27 26 21 21 26 21 14 20 20 13 18 22
29 31 31 32 34 37 35 36 32 31 34 35 36 34 36 35 31 28 28 30 29 35 49 39 43 49 46 43 40 37 33 28 25 25 27 22 21 26 25 31 24 23 20 14 17 20 24
32 33 33 34 34 36 38 38 35 31 34 37 38 37 36 36 33 30 32 28 27 29 39 31 35 42 49 47 44 41 37 32 30 27 28 27 27 30 25 23 27 29 20 26 15 28 18
35 34 35 34 36 37 38 37 36 34 37 38 39 38 37 35 35 32 34 27 30 30 28 27 33 33 41 43 43 43 40 37 32 30 33 27 32 32 29 28 23 28 27 27 28 19 24
34 35 35 37 36 38 39 38 37 36 36 37 40 38 37 37 34 34 30 26 28 29 16 17 26 30 40 43 42 43 43 43 37 36 34 32 30 33 25 29 28 22 27 22 32 28 33
37 36 35 34 37 37 39 40 39 37 36 36 37 38 35 38 36 33 31 30 30 28 20 17 15 17 26 35 40 44 48 48 47 44 39 35 34 29 27 26 31 31 27 24 24 29 17
40 38 37 37 37 38 38 41 39 37 36 35 36 36 34 36 38 33 33 35 35 16 27 25 16 11 11 24 32 37 44 48 47 45 39 37 37 30 22 25 26 28 29 28 29 14 4
45 43 40 40 39 40 38 40 39 39 36 34 35 35 32 37 39 36 35 38 32 13 35 32 20 10 24 21 27 31 40 43 44 45 42 35 32 25 23 29 28 21 28 20 19 13 19
50 44 44 43 42 41 41 40 38 38 37 33 34 32 33 38 40 38 37 35 27 18 42 36 34 22 23 28 26 27 33 41 41 43 40 30 16 26 22 19 25 22 27 25 30 29 22
52 47 47 45 43 43 41 40 38 37 37 35 33 29 35 38 39 40 36 31 22 25 46 38 37 29 23 24 27 30 29 33 35 41 38 31 26 23 28 34 32 29 34 25 20 27 16
54 50 48 46 45 43 43 41 39 36 36 35 31 27 36 36 38 39 33 27 23 34 49 43 34 27 29 26 34 24 31 27 28 33 43 34 30 27 30 22 20 30 39 25 21 25 23
53 51 49 48 44 43 44 41 39 36 35 34 31 27 33 34 37 38 33 29 29 35 45 36 34 39 33 32 36 35 32 30 28 25 38 39 38 35 30 30 29 28 27 22 28 26 31
52 51 48 45 42 41 42 42 40 38 36 34 32 30 33 36 35 36 34 30 32 35 45 39 21 31 42 38 32 33 36 35 31 25 26 46 41 37 35 28 38 31 25 28 34 34 26
52 48 47 42 42 41 41 42 43 41 38 34 33 34 38 39 38 43 38 31 34 38 39 37 28 35 39 39 35 35 34 39 38 30 26 47 41 38 37 37 36 31 34 32 36 36 30
51 44 41 40 44 47 43 44 45 45 42 38 34 32 40 36 30 43 40 33 34 37 43 43 32 33 40 45 29 34 42 39 41 35 34 34 39 36 42 40 39 34 21 23 27 25 32
53 50 42 42 41 41 41 42 42 43 44 42 36 36 39 36 31 37 41 39 32 38 46 46 37 29 32 37 35 47 43 39 41 50 42 41 39 47 45 46 47 40 35 29 26 28 30
51 50 50 48 48 48 48 44 43 40 39 41 43 38 38 36 38 41 42 42 39 48 44 43 44 38 49 49 48 43 43 42 40 47 42 45 51 49 50 46 50 52 40 32 30 32 32
46 46 46 46 44 43 43 43 42 38 37 38 41 41 39 37 47 45 39 47 50 42 15 59 47 53 51 54 51 57 46 40 46 43 41 43 50 47 51 48 45 46 45 41 35 33 37
48 46 45 43 41 39 38 38 37 36 36 36 39 41 40 40 49 50 52 50 50 55 49 30 45 33 52 59 46 51 47 45 48 42 48 43 44 48 52 52 53 50 34 33 39 40 42
45 44 41 38 36 36 37 35 33 35 35 35 36 40 41 40 45 48 53 55 49 52 45 48 46 34 30 53 54 48 53 52 60 50 48 45 41 49 40 49 54 44 41 41 43 53 46
41 37 35 33 33 33 34 34 33 35 35 33 32 37 39 39 42 42 43 50 49 46 45 49 49 48 40 39 41 47 43 43 24 31 18 22 38 54 51 45 42 50 33 39 41 46 42
34 34 33 31 29 29 31 32 32 34 36 35 34 35 37 39 41 42 40 45 53 41 49 48 51 46 39 44 48 47 45 39 34 38 30 51 43 33 35 34 45 30 31 44 54 62 60
Wind_Direction
310 311 310 309 308 306 304 299 297 299 298 297 297 299 272 252 247 244 241 239 235 228 229 227 224 218 214 201 173 178 177 187 169 168 151 162 153 138 94 89 234 173 226 235 270 281 289
307 306 302 302 302 303 302 300 297 292 290 291 293 292 292 277 251 244 243 240 234 230 228 228 224 220 214 208 203 181 178 177 176 171 165 171 171 174 116 122 219 188 237 232 241 226 240
300 300 300 298 297 297 299 300 297 292 289 286 285 286 286 287 280 250 242 240 239 229 227 227 224 219 217 205 210 197 183 186 187 176 169 181 190 187 130 133 231 192 205 207 234 13 43
297 295 292 292 295 292 290 293 296 294 289 284 285 283 282 283 284 274 248 241 237 235 225 225 223 218 218 208 217 198 195 191 194 185 175 187 185 211 149 144 249 207 224 223 83 12 352
296 295 292 287 290 290 288 287 290 291 290 287 281 281 282 280 281 282 267 244 241 232 229 222 221 217 215 213 208 214 194 188 198 198 195 186 186 207 161 161 204 230 153 219 257 301 345
301 298 294 288 287 288 285 284 284 287 288 287 285 279 278 276 277 280 282 257 242 236 227 222 219 216 212 210 209 207 206 200 197 203 207 195 193 201 197 173 179 172 178 247 257 276 310
305 299 296 292 288 286 284 282 280 280 284 285 284 283 277 274 273 275 282 279 250 239 233 224 217 217 215 211 206 208 206 203 203 205 204 196 210 208 205 155 135 161 266 239 246 254 272
313 304 296 293 289 287 284 283 281 284 285 284 282 281 280 274 273 273 275 278 265 243 232 227 219 216 213 213 208 205 209 208 212 211 200 204 206 204 205 157 162 161 234 290 303 302 288
309 310 305 293 288 287 284 283 279 281 286 286 284 279 277 274 271 274 270 268 274 255 234 230 223 219 213 213 213 205 210 209 210 211 208 212 196 203 194 159 179 172 193 258 272 269 260
303 303 303 301 291 286 284 281 279 279 281 283 283 277 272 272 269 271 269 270 277 270 249 228 232 220 219 212 209 208 205 211 210 210 210 208 198 205 191 173 184 186 201 205 201 267 261
298 301 298 298 296 286 283 280 273 279 279 279 279 275 268 267 268 264 263 268 271 270 253 228 235 219 224 220 217 206 205 208 210 211 212 206 206 204 190 181 201 213 207 214 200 203 260
299 295 294 292 291 289 279 274 272 278 279 278 279 273 264 262 263 260 269 263 261 263 244 230 227 227 222 216 214 207 205 206 208 208 212 210 207 208 204 192 190 216 215 219 204 207 226
302 299 296 290 290 287 280 272 271 275 275 276 277 273 262 260 255 259 258 251 247 251 196 185 230 230 220 221 217 213 204 205 207 207 209 207 209 205 203 219 201 214 211 213 216 225 244
302 299 298 292 287 284 281 273 269 269 270 273 275 271 260 249 253 252 251 250 246 240 182 159 169 314 296 231 216 217 217 206 207 209 209 206 210 205 193 210 213 217 199 213 206 231 298
302 297 293 292 285 280 276 272 268 269 269 267 271 268 254 244 248 248 246 248 244 222 173 164 169 165 265 286 226 219 224 215 212 212 209 208 209 196 194 225 209 200 205 219 212 247 268
304 297 291 290 286 280 276 273 270 267 267 264 266 263 250 241 244 245 245 247 244 198 174 176 175 184 196 258 257 227 225 219 211 215 217 197 218 200 207 245 185 212 231 232 209 231 235
301 296 292 288 284 279 274 270 269 266 265 263 264 257 244 241 241 243 245 249 239 192 187 193 184 181 184 211 254 235 228 227 219 215 211 183 188 191 207 232 194 203 225 222 222 225 234
299 292 285 282 280 276 272 268 267 264 263 261 258 253 243 236 236 241 237 238 220 196 193 199 193 188 179 196 205 242 220 231 238 221 206 196 175 176 221 244 250 227 222 219 228 212 220
289 283 279 277 273 270 267 265 263 262 260 258 254 248 249 238 236 236 233 224 214 201 198 193 188 187 191 196 197 199 216 228 245 244 212 185 181 194 210 240 242 238 222 219 240 235 218
281 278 275 273 271 268 266 264 260 258 256 253 248 240 241 235 221 230 236 220 210 205 203 200 192 196 201 203 198 196 205 209 235 245 207 186 190 205 213 224 230 223 225 213 234 250 228
277 274 275 271 267 265 265 263 260 256 251 247 242 236 238 237 228 222 221 218 213 200 202 208 206 198 206 201 199 201 203 205 211 234 238 198 203 205 211 207 194 228 228 232 234 235 234
279 276 267 263 263 270 263 260 256 253 247 243 239 236 237 236 245 226 215 209 210 206 203 199 210 199 200 206 212 201 200 200 202 217 228 212 212 209 216 204 209 218 216 242 234 232 234
280 281 277 270 266 265 261 259 258 253 245 238 233 230 231 229 229 225 217 204 196 205 201 207 207 231 193 209 214 196 200 204 205 206 212 219 221 219 222 217 217 221 216 225 239 267 269
279 274 271 268 263 259 258 258 259 255 247 239 231 231 228 219 217 221 214 207 195 212 211 205 198 213 217 205 204 200 199 205 206 209 212 216 219 224 225 227 228 221 218 218 227 235 250
276 271 266 263 261 259 257 253 254 249 244 237 231 226 225 212 215 217 211 210 202 209 232 198 206 209 215 210 208 214 197 205 204 216 211 213 219 221 229 233 240 243 240 240 231 236 243
271 268 266 263 261 258 256 253 250 240 237 235 230 224 222 215 217 216 210 212 211 212 218 215 219 205 217 212 204 216 211 208 212 213 219 218 222 223 227 229 232 241 245 226 228 242 244
271 269 267 262 257 254 250 247 241 233 231 232 227 223 219 216 221 222 217 214 214 214 219 221 227 224 202 200 208 213 216 214 217 220 221 206 213 220 227 232 231 219 215 240 232 226 230
267 265 260 257 254 248 242 240 234 227 225 224 223 223 219 213 220 223 227 215 219 223 220 222 227 228 215 212 217 222 219 212 216 218 249 210 218 225 237 235 233 211 221 241 251 254 250
264 258 253 251 249 243 235 233 230 225 220 215 218 220 213 210 216 221 223 221 214 217 212 219 224 228 221 219 220 218 226 213 218 219 227 226 223 223 220 247 236 222 237 262 246 239 244
Height
5890 5889 5888 5887 5885 5884 5883 5882 5881 5880 5879 5878 5877 5876 5877 5879 5881 5883 5886 5890 5894 5897 5899 5901 5903 5904 5906 5907 5908 5907 5907 5909 5911 5912 5916 5919 5922 5921 5923 5930 5938 5937 5935 5934 5926 5925 5930
5886 5884 5883 5882 5880 5879 5878 5877 5877 5876 5874 5874 5873 5872 5872 5872 5874 5876 5880 5883 5887 5891 5895 5898 5900 5902 5904 5905 5906 5907 5906 5908 5911 5911 5915 5918 5921 5921 5922 5928 5937 5934 5937 5933 5931 5931 5934
5881 5880 5879 5877 5876 5874 5873 5872 5872 5871 5870 5869 5867 5868 5867 5867 5867 5869 5872 5875 5879 5884 5889 5893 5896 5899 5901 5903 5903 5905 5905 5906 5908 5913 5914 5917 5919 5921 5919 5927 5934 5933 5935 5931 5932 5931 5932
5875 5873 5872 5871 5870 5869 5868 5867 5866 5865 5865 5863 5862 5861 5861 5862 5862 5862 5864 5867 5871 5876 5881 5886 5890 5894 5896 5900 5901 5902 5904 5904 5906 5910 5913 5914 5918 5918 5917 5924 5931 5933 5933 5933 5932 5930 5927
5870 5867 5865 5863 5862 5862 5862 5862 5860 5859 5859 5859 5857 5856 5855 5856 5856 5856 5857 5860 5863 5867 5872 5877 5884 5889 5892 5896 5898 5899 5902 5903 5905 5908 5909 5912 5913 5915 5915 5920 5928 5929 5931 5930 5931 5932 5933
5864 5862 5859 5857 5854 5854 5853 5855 5854 5853 5852 5852 5852 5851 5849 5849 5850 5850 5851 5851 5854 5858 5861 5869 5876 5883 5887 5888 5892 5896 5898 5901 5902 5904 5906 5909 5911 5912 5913 5915 5922 5927 5929 5929 5930 5933 5934
5858 5855 5853 5851 5848 5846 5845 5845 5846 5846 5846 5845 5845 5845 5844 5843 5843 5844 5845 5845 5846 5850 5856 5861 5866 5871 5879 5882 5887 5891 5893 5896 5898 5900 5902 5907 5907 5909 5914 5917 5920 5926 5928 5931 5927 5930 5932
5851 5849 5846 5844 5842 5839 5838 5837 5836 5837 5838 5838 5838 5838 5838 5837 5837 5837 5837 5837 5835 5839 5846 5850 5857 5860 5869 5875 5879 5885 5888 5892 5894 5896 5899 5901 5904 5909 5913 5914 5920 5925 5928 5929 5931 5927 5929
5844 5842 5839 5837 5834 5832 5830 5829 5828 5828 5829 5830 5830 5830 5831 5830 5831 5831 5830 5828 5830 5828 5832 5843 5849 5853 5860 5867 5874 5878 5883 5887 5890 5892 5895 5898 5905 5906 5908 5910 5917 5922 5929 5930 5930 5928 5929
5837 5834 5831 5829 5827 5824 5822 5821 5821 5820 5820 5821 5821 5822 5822 5823 5826 5823 5821 5824 5824 5823 5825 5842 5843 5849 5851 5857 5864 5870 5877 5883 5885 5888 5891 5894 5900 5901 5902 5906 5916 5919 5924 5928 5930 5921 5919
5829 5826 5822 5820 5818 5816 5814 5812 5812 5811 5810 5811 5811 5812 5813 5816 5815 5815 5814 5818 5817 5819 5822 5832 5834 5841 5846 5854 5859 5863 5869 5874 5880 5884 5885 5891 5893 5895 5898 5904 5913 5915 5919 5921 5925 5925 5925
5819 5816 5813 5810 5807 5806 5804 5803 5802 5801 5801 5801 5801 5802 5805 5807 5805 5808 5810 5810 5811 5814 5821 5821 5826 5833 5838 5842 5848 5853 5860 5866 5873 5876 5880 5885 5889 5891 5897 5901 5906 5913 5914 5916 5920 5921 5918
5807 5805 5803 5800 5797 5795 5794 5792 5792 5791 5791 5792 5790 5791 5796 5798 5795 5801 5801 5802 5803 5807 5818 5819 5821 5826 5831 5837 5842 5844 5849 5854 5860 5865 5871 5879 5881 5886 5891 5896 5901 5905 5908 5911 5913 5914 5913
5795 5792 5790 5788 5786 5784 5782 5782 5781 5780 5779 5782 5781 5781 5784 5789 5784 5791 5793 5793 5794 5809 5814 5814 5817 5825 5827 5831 5835 5839 5842 5848 5854 5860 5866 5871 5875 5879 5886 5890 5895 5897 5902 5905 5907 5910 5911
5783 5781 5777 5774 5772 5772 5770 5770 5769 5769 5768 5770 5770 5771 5776 5777 5776 5781 5783 5783 5790 5802 5811 5812 5817 5824 5827 5828 5830 5833 5835 5843 5850 5855 5860 5866 5872 5878 5881 5887 5891 5895 5897 5903 5905 5907 5907
5769 5767 5765 5763 5761 5759 5759 5759 5757 5758 5758 5760 5759 5762 5766 5764 5768 5770 5774 5780 5785 5795 5800 5799 5801 5809 5816 5826 5826 5826 5830 5837 5845 5850 5857 5860 5869 5873 5880 5884 5887 5891 5896 5899 5898 5900 5902
5754 5753 5752 5750 5747 5748 5746 5746 5746 5747 5747 5749 5749 5752 5752 5754 5760 5760 5767 5775 5780 5786 5789 5791 5792 5797 5805 5819 5823 5823 5827 5832 5839 5845 5852 5856 5862 5872 5876 5877 5881 5886 5888 5892 5896 5898 5900
5740 5736 5733 5733 5734 5733 5732 5733 5734 5735 5737 5738 5739 5742 5740 5744 5751 5753 5760 5766 5773 5775 5777 5780 5786 5793 5800 5808 5813 5820 5822 5826 5833 5840 5843 5850 5856 5862 5870 5874 5878 5882 5883 5886 5888 5892 5895
5722 5720 5718 5718 5717 5718 5718 5718 5720 5723 5725 5727 5729 5732 5731 5736 5742 5745 5751 5756 5763 5766 5770 5777 5778 5783 5790 5799 5805 5809 5819 5825 5830 5832 5838 5845 5848 5855 5864 5870 5871 5873 5877 5881 5884 5887 5888
5705 5704 5703 5702 5702 5703 5705 5707 5708 5711 5714 5716 5719 5723 5722 5724 5731 5738 5742 5747 5752 5759 5765 5769 5771 5777 5782 5790 5797 5804 5809 5817 5824 5827 5835 5838 5841 5847 5853 5861 5865 5869 5872 5876 5878 5879 5885
5688 5686 5686 5687 5688 5688 5690 5692 5696 5698 5702 5703 5707 5710 5712 5714 5723 5724 5731 5739 5744 5749 5755 5765 5766 5767 5774 5782 5790 5796 5802 5806 5814 5820 5827 5831 5832 5841 5848 5855 5859 5863 5865 5870 5871 5874 5876
5672 5671 5671 5671 5672 5674 5675 5676 5680 5684 5687 5690 5696 5701 5703 5709 5715 5719 5724 5730 5736 5743 5747 5752 5755 5765 5770 5772 5775 5782 5788 5797 5806 5817 5818 5825 5827 5834 5839 5846 5852 5853 5856 5859 5864 5867 5870
5655 5655 5655 5656 5657 5658 5660 5662 5665 5668 5673 5676 5683 5687 5692 5700 5704 5707 5713 5718 5725 5732 5735 5740 5749 5755 5760 5762 5766 5776 5783 5791 5798 5802 5809 5817 5821 5825 5830 5837 5842 5844 5850 5856 5860 5860 5861
5637 5638 5639 5639 5641 5642 5645 5646 5650 5654 5658 5662 5669 5676 5682 5689 5692 5694 5702 5710 5711 5709 5723 5731 5736 5743 5745 5749 5759 5768 5775 5783 5791 5792 5801 5807 5813 5818 5823 5831 5831 5838 5843 5849 5851 5852 5852
5619 5620 5619 5621 5623 5625 5628 5631 5636 5641 5645 5649 5655 5663 5669 5677 5679 5686 5696 5700 5703 5707 5703 5716 5726 5733 5738 5747 5753 5761 5769 5775 5782 5784 5793 5797 5804 5808 5814 5821 5828 5834 5842 5845 5846 5847 5846
5602 5603 5604 5605 5608 5611 5614 5618 5622 5628 5633 5638 5644 5650 5658 5664 5671 5677 5684 5691 5700 5700 5706 5712 5719 5726 5733 5742 5750 5755 5761 5769 5778 5778 5784 5792 5796 5801 5805 5809 5814 5824 5832 5834 5835 5836 5839
5585 5586 5588 5591 5593 5597 5601 5606 5610 5616 5622 5627 5633 5638 5645 5655 5661 5668 5674 5683 5692 5695 5702 5708 5714 5718 5725 5736 5743 5746 5753 5762 5766 5765 5778 5776 5782 5789 5793 5797 5804 5814 5811 5811 5816 5826 5823
5569 5572 5575 5577 5580 5584 5589 5594 5599 5605 5611 5618 5624 5630 5639 5649 5653 5660 5666 5673 5680 5689 5699 5703 5707 5710 5723 5731 5739 5745 5750 5755 5756 5761 5767 5765 5774 5780 5784 5787 5791 5793 5807 5807 5810 5810 5811
5555 5558 5562 5565 5569 5573 5578 5583 5589 5595 5602 5610 5616 5621 5629 5638 5644 5650 5656 5663 5670 5679 5686 5690 5698 5708 5720 5725 5732 5740 5745 5748 5749 5750 5747 5755 5755 5764 5771 5771 5779 5781 5789 5795 5798 5796 5796